Zurück zum Katalog

COSMOS 1247 DEB

LostHEO
NORAD 48263·DEBRIS·🇷🇺 Russia

Gestartet Feb 19, 1981 von Plesetsk Cosmodrome

Loading…

Nächste Überflüge (nächste 24 Stunden)

TLE

VeraltetSource: Space-Track

Epoche: Oct 13, 2024, 13:49 UTC

1 48263U 81016M   24287.57578955 -.00000345  00000-0  00000-0 0  9996
2 48263  68.3398  41.2559 6050120 351.3527   1.6118  1.96491137139751

Verfolge COSMOS 1247 DEB in Echtzeit mit AllMySat

Download on the App Store